Showing default

GUANGCHUAN 01, 62111

Orbit data source: Space-Track

GUANGCHUAN 01, 62111 is a payload satellite owned by Hongqing Keji (CN) in LEO that was launched on Wed, 27 Nov 2024 UTC via a ZHUQUE-2E launch vehicle from the Jiuquan Satellite Launch Center, China (JSC). Payload-class satellites include a variety of spacecraft equipped with specific instruments for various scientific and technological missions. These include communications satellites like Starlink; space stations such as the ISS; scientific satellites like the Hubble; Earth observation satellites from companies like Planet Labs, Umbra, and HawkEye 360; GPS; miniature CubeSats for education and research; and military/defense satellites.

Loading next visibility...
Identifier
62111, 2024-221A
Orbit
LEO
Country
Flag of CNCN / PRC
Related business
Manufacturer
CAST?
Mission
Operational Commercial Communications
Bus & Motor
HQ, Unknown motor
Mass
~500 kg wet, ~500 kg dry
Launch date (UTC)
2024-11-27 (1 year ago)
Launch vehicle
ZHUQUE-2E
Launch site
Jiuquan Satellite Launch Center, China (JSC)
Object type
Payload
Rocket body
Debris
Shape & HBR
Box + 2 Pan, 3.0 m
Radar Cross Section
4.560 m², Large (>1 m²)

Expand to show TLE details & history
Last TLE update: 11 hours ago

TLE from 11 hours ago
0 GUANGCHUAN 01
1 62111U 24221A   25340.81205943  .00007489  00000-0  40263-3 0  9994
2 62111  49.9460  19.7049 0007407 248.9528 111.0631 15.15740837 57018
Epoch: 2025-12-06T19:29Z
TLE epoch observation values (Epoch: 2025-12-06T19:29:21.934Z)
Latitude
-0.00005°
Longitude
11.52904°
Altitude
521.115 km
Speed
7.603 km/s
True Right ascension
01h 18m 49s
True Declination
0° 00' 00"
Sunlit
Object was in full shadow at epoch
Visualization orbit readout
Latitude
Unknown
Longitude
Unknown
Altitude
Unknown
Speed
Unknown
Apparent Right ascension
Unknown
Apparent Declination
Unknown
Sunlit
N/A
Visualization observer readout
Local Sidereal Time
04:25:31
Azimuth
Unknown
Elevation
Unknown
Doppler factor
Unknown
Orbital elements
Apogee altitude
524.617 km
Perigee altitude
514.399 km
Semi-major axis
6,897.645 km
Eccentricity
0.00074
Inclination
49.946°
RAAN
19.7049°
Arg. of periapsis
248.9528°
True anomaly
111.14228°
Mean anomaly
111.0631°
Eccentric anomaly
111.10269°
Mean motion
3.78871 °/min
Orbital period
95.02 mins
BSTAR
0.00040263
Loading maneuver chart data...
Computing Atmospheric mass density...
Loading historical data...
Loading historical data...
Loading historical data...
Loading historical data...
Loading historical data...
Loading historical data...
Loading historical data...
Other satellites on launch #221 in the year 2024 (2024-11-27 UTC)

Documentation

Showing up to 5 results
|